CDT,Max TemperatureF,Mean TemperatureF,Min TemperatureF,Max Dew PointF,MeanDew PointF,Min DewpointF,Max Humidity, Mean Humidity, Min Humidity, Max Sea Level PressureIn, Mean Sea Level PressureIn, Min Sea Level PressureIn, Max VisibilityMiles, Mean VisibilityMiles, Min VisibilityMiles, Max Wind SpeedMPH, Mean Wind SpeedMPH, Max Gust SpeedMPH,PrecipitationIn, CloudCover, Events, WindDirDegrees
2012-3-1,73,52,30,14,9,-2,32,18,10,30.10,30.00,29.87,10,10,9,28,8,33,0.00,0,,228
2012-3-2,71,53,35,14,6,-8,22,14,10,29.95,29.89,29.84,10,10,10,32,10,41,0.00,0,,249
2012-3-3,55,42,28,14,5,-8,47,23,11,30.26,30.19,30.05,10,10,10,24,16,29,0.00,0,,305
2012-3-4,69,46,24,12,1,-11,25,16,10,30.29,30.24,30.18,10,10,10,20,7,25,0.00,0,,246
2012-3-5,75,52,28,16,5,-9,25,16,10,30.30,30.24,30.15,10,10,9,16,9,24,0.00,0,,353
2012-3-6,73,53,33,30,21,9,49,32,14,30.17,30.03,29.90,10,10,10,22,7,28,0.00,0,,151
2012-3-7,80,55,30,30,21,7,75,35,10,29.96,29.90,29.81,10,10,10,30,10,37,0.00,0,,200
2012-3-8,60,48,35,30,14,-2,70,31,13,30.22,30.05,29.93,10,7,2,34,12,40,0.00,4,,18
2012-3-9,37,34,30,27,24,21,86,70,56,30.40,30.34,30.25,10,10,10,26,21,32,0.00,8,,24
2012-3-10,59,44,30,36,30,27,87,70,38,30.25,30.11,29.95,10,10,10,20,10,18,0.00,6,,70
2012-3-11,66,44,21,28,19,9,93,48,15,30.12,30.08,30.04,10,10,10,24,8,29,0.00,0,,245
2012-3-12,73,50,26,18,11,3,40,23,10,30.21,30.14,30.09,10,10,10,9,5,,0.00,0,,120
2012-3-13,78,58,37,36,19,3,45,24,11,30.16,30.11,30.04,10,10,7,17,6,22,0.00,0,,237
2012-3-14,77,59,41,52,38,19,93,58,12,30.18,30.12,30.08,10,10,10,10,5,,0.00,0,,297
2012-3-15,78,58,39,46,30,16,81,44,11,30.22,30.16,30.10,10,10,10,12,6,21,0.00,0,,24
2012-3-16,82,62,42,54,36,16,76,42,15,30.16,30.09,29.97,10,10,10,25,6,34,0.00,1,Thunderstorm,219
2012-3-17,82,62,41,54,36,21,93,55,13,30.08,30.03,29.94,10,10,10,21,7,28,0.00,0,,262
2012-3-18,75,67,59,39,26,18,40,21,13,29.98,29.90,29.78,10,10,5,32,18,41,0.00,2,,189
2012-3-19,66,55,44,36,28,16,66,40,17,29.85,29.78,29.69,10,10,7,38,13,45,0.00,4,,260
2012-3-20,50,40,30,28,21,10,86,52,22,29.98,29.86,29.80,10,10,9,31,22,38,0.00,2,,279
2012-3-21,60,45,30,21,14,3,60,31,12,30.04,29.98,29.92,10,10,10,25,13,33,0.00,0,,277
2012-3-22,71,48,26,19,11,0,34,22,11,30.04,30.00,29.97,10,10,10,18,7,30,0.00,0,,265
2012-3-23,82,58,33,21,12,1,28,18,10,30.17,30.10,30.06,10,10,5,15,8,23,0.00,0,,306
2012-3-24,84,62,39,23,16,9,33,19,10,30.17,30.11,30.06,10,10,10,15,7,,0.00,0,,293
2012-3-25,84,64,44,37,26,12,46,25,11,30.15,30.10,30.01,10,10,9,17,8,25,0.00,0,,88
2012-3-26,82,65,48,46,39,28,67,42,17,30.11,30.05,29.95,10,10,10,17,6,26,0.00,0,,175
2012-3-27,78,62,46,54,45,27,93,60,17,30.13,30.08,30.01,10,10,8,40,7,51,0.00,1,Thunderstorm,324
2012-3-28,82,60,39,43,35,28,87,49,15,30.14,30.07,29.97,10,10,10,28,6,33,0.00,0,,13
2012-3-29,75,62,48,43,35,28,67,39,19,30.07,30.03,29.97,10,10,10,26,8,31,0.00,2,,321
2012-3-30,80,60,39,34,25,18,61,31,10,30.08,30.02,29.98,10,10,8,23,9,30,0.00,0,,310
2012-3-31,82,58,35,21,12,1,24,15,10,30.10,30.04,29.98,10,10,10,22,8,29,0.00,0,,302